Shanghai Hongqiao, China

8:34 PM CST on November 21, 2018 (GMT +0800)
Hongqiao

Weather History for ZSSS - July, 2018

Change the Weather History Date:

Friday, July 13, 2018

  Actual Average Record
Temperature  
Mean Temperature 86 °F -  
Max Temperature 93 °F 89 °F 100 °F (2017)
Min Temperature 80 °F 77 °F 66 °F (1996)
Cooling Degree Days 22    
Growing Degree Days 36 (Base 50)    
Moisture  
Dew Point 76 °F    
Average Humidity 72    
Maximum Humidity 89    
Minimum Humidity 56    
Precipitation  
Precipitation 0.00 in 0.17 in - ()
Sea Level Pressure  
Sea Level Pressure 29.79 in    
Wind  
Wind Speed 14 mph ()    
Max Wind Speed 18 mph    
Max Gust Speed -    
Visibility 6.2 miles    
Events      
Averages and records for this station are not official NWS values.
T = Trace of Precipitation, MM = Missing Value Source: Averaged Metar Reports

Daily Weather History Graph

Daily Weather History Graph

Search for Another Location

Airport or City:

Astronomy

Jul. 13, 2018 Rise Set
Actual Time 4:59 AM CST 7:00 PM CST
Civil Twilight 4:32 AM CST 7:28 PM CST
Nautical Twilight 3:58 AM CST 8:01 PM CST
Astronomical Twilight 3:23 AM CST 8:36 PM CST
Moon 4:52 AM CST (7/13) 7:10 PM CST (7/13)
Length of Visible Light 14h 55m
Length of Day
14h 01m
New Moon, 0% of the Moon is Illuminated
Jul 13
New Moon
Jul 20
First Quarter
Jul 28
Full
Aug 5
Last Quarter
Aug 11
New

Hourly Weather History & Observations

Time (CST) Temp. Heat Index Dew Point Humidity Pressure Visibility Wind Dir Wind Speed Gust Speed Precip Events Conditions
12:00 AM 82.4 °F 90.9 °F 77.0 °F 84% 29.83 in 6.2 mi SE 15.7 mph - N/A   Scattered Clouds
12:30 AM 82.4 °F 90.9 °F 77.0 °F 84% 29.83 in 6.2 mi SSE 17.9 mph - N/A   Mostly Cloudy
1:30 AM 80.6 °F 87.1 °F 77.0 °F 89% 29.80 in 6.2 mi SE 17.9 mph - N/A   Mostly Cloudy
2:00 AM 80.6 °F 87.1 °F 77.0 °F 89% 29.80 in 6.2 mi SE 15.7 mph - N/A   Scattered Clouds
2:30 AM 80.6 °F 87.1 °F 77.0 °F 89% 29.80 in 6.2 mi SE 13.4 mph - N/A   Partly Cloudy
3:00 AM 80.6 °F 87.1 °F 77.0 °F 89% 29.80 in 6.2 mi SSE 11.2 mph - N/A   Partly Cloudy
3:30 AM 80.6 °F 87.1 °F 77.0 °F 89% 29.80 in 6.2 mi SE 13.4 mph - N/A   Scattered Clouds
4:00 AM 80.6 °F 87.1 °F 77.0 °F 89% 29.80 in 6.2 mi SE 11.2 mph - N/A   Scattered Clouds
4:30 AM 80.6 °F 87.1 °F 77.0 °F 89% 29.80 in 6.2 mi SE 11.2 mph - N/A   Scattered Clouds
5:00 AM 80.6 °F 87.1 °F 77.0 °F 89% 29.80 in 6.2 mi SSE 11.2 mph - N/A   Partly Cloudy
5:30 AM 80.6 °F 87.1 °F 77.0 °F 89% 29.80 in 6.2 mi SSE 8.9 mph - N/A   Scattered Clouds
6:00 AM 82.4 °F 90.9 °F 77.0 °F 84% 29.80 in 6.2 mi SSE 11.2 mph - N/A   Scattered Clouds
7:00 AM 84.2 °F 94.1 °F 77.0 °F 79% 29.80 in 6.2 mi SSE 13.4 mph - N/A   Mostly Cloudy
7:30 AM 84.2 °F 92.3 °F 75.2 °F 74% 29.80 in 6.2 mi SSE 15.7 mph - N/A   Mostly Cloudy
8:00 AM 86.0 °F 96.9 °F 77.0 °F 74% 29.80 in 6.2 mi SSE 15.7 mph - N/A   Mostly Cloudy
8:30 AM 87.8 °F 99.7 °F 77.0 °F 70% 29.80 in 6.2 mi SSE 15.7 mph - N/A   Mostly Cloudy
9:00 AM 89.6 °F 102.2 °F 77.0 °F 66% 29.80 in 6.2 mi SSE 13.4 mph - N/A   Mostly Cloudy
9:30 AM 89.6 °F 102.2 °F 77.0 °F 66% 29.80 in 6.2 mi SSE 15.7 mph - N/A   Mostly Cloudy
10:00 AM 89.6 °F 102.2 °F 77.0 °F 66% 29.80 in 6.2 mi South 17.9 mph - N/A   Mostly Cloudy
10:30 AM 89.6 °F 102.2 °F 77.0 °F 66% 29.80 in 6.2 mi SSE 15.7 mph - N/A   Mostly Cloudy
11:00 AM 91.4 °F 102.5 °F 75.2 °F 59% 29.80 in 6.2 mi SSE 17.9 mph - N/A   Scattered Clouds
11:30 AM 93.2 °F 105.0 °F 75.2 °F 56% 29.80 in 6.2 mi South 15.7 mph - N/A   Scattered Clouds
12:00 PM 93.2 °F 105.0 °F 75.2 °F 56% 29.80 in 6.2 mi South 17.9 mph - N/A   Scattered Clouds
12:30 PM 93.2 °F 105.0 °F 75.2 °F 56% 29.77 in 6.2 mi South 15.7 mph - N/A   Mostly Cloudy
1:00 PM 91.4 °F 102.5 °F 75.2 °F 59% 29.77 in 6.2 mi SSE 15.7 mph - N/A   Mostly Cloudy
1:30 PM 89.6 °F 99.8 °F 75.2 °F 62% 29.77 in 6.2 mi SSE 15.7 mph - N/A   Mostly Cloudy
2:00 PM 91.4 °F 105.1 °F 77.0 °F 63% 29.77 in 6.2 mi SE 15.7 mph - N/A   Mostly Cloudy
2:30 PM 91.4 °F 102.5 °F 75.2 °F 59% 29.77 in 6.2 mi SE 15.7 mph - N/A   Scattered Clouds
3:00 PM 91.4 °F 102.5 °F 75.2 °F 59% 29.77 in 6.2 mi SE 15.7 mph - N/A   Scattered Clouds
3:30 PM 91.4 °F 102.5 °F 75.2 °F 59% 29.77 in 6.2 mi SSE 15.7 mph - N/A   Scattered Clouds
4:00 PM 91.4 °F 102.5 °F 75.2 °F 59% 29.77 in 6.2 mi SE 13.4 mph - N/A   Partly Cloudy
4:30 PM 91.4 °F 102.5 °F 75.2 °F 59% 29.77 in - SE 15.7 mph - N/A   Clear
5:00 PM 89.6 °F 99.8 °F 75.2 °F 62% 29.77 in - SE 17.9 mph - N/A   Clear
5:30 PM 87.8 °F 97.6 °F 75.2 °F 66% 29.74 in - SE 17.9 mph - N/A   Clear
6:00 PM 87.8 °F 97.6 °F 75.2 °F 66% 29.77 in - SSE 15.7 mph - N/A   Clear
6:30 PM 86.0 °F 95.1 °F 75.2 °F 70% 29.77 in - SSE 15.7 mph - N/A   Clear
7:00 PM 86.0 °F 95.1 °F 75.2 °F 70% 29.77 in - SE 15.7 mph - N/A   Clear
7:30 PM 84.2 °F 92.3 °F 75.2 °F 74% 29.77 in - SSE 17.9 mph - N/A   Clear
8:00 PM 84.2 °F 90.9 °F 73.4 °F 70% 29.77 in - SE 17.9 mph - N/A   Clear
8:30 PM 84.2 °F 90.9 °F 73.4 °F 70% 29.77 in - SE 17.9 mph - N/A   Clear
9:00 PM 84.2 °F 90.9 °F 73.4 °F 70% 29.80 in - SE 17.9 mph - N/A   Clear
9:30 PM 82.4 °F 88.2 °F 73.4 °F 74% 29.80 in - SE 15.7 mph - N/A   Clear
10:00 PM 82.4 °F 88.2 °F 73.4 °F 74% 29.80 in - SE 13.4 mph - N/A   Clear
10:30 PM 82.4 °F 88.2 °F 73.4 °F 74% 29.80 in - SSE 11.2 mph - N/A   Clear
11:00 PM 82.4 °F 88.2 °F 73.4 °F 74% 29.80 in - SSE 13.4 mph - N/A   Clear
11:30 PM 82.4 °F 88.2 °F 73.4 °F 74% 29.80 in - SSE 13.4 mph - N/A   Clear